RH
49 47 45 44 42 40 37 34 33 31 29 28 28 29 30 32 34 36 39 41 42 43 43 41 40 38 36 35 33 31 30 29 28 27 27 27 27 27 27 26 26 26 26 26 26 26 26 26 26 26 25 25 25 25 26 27 27 28 28 29 29 30 31 33 35 37 40 42 44 46 48 49 50 51 51 51 51 51 51 51 51 51 52 53 54 55
47 46 46 43 40 37 35 33 32 30 29 29 29 31 32 35 37 40 42 43 43 43 41 39 37 35 33 31 29 28 27 26 26 26 26 26 26 26 26 26 26 25 25 25 25 25 25 24 24 23 23 23 23 24 24 25 25 24 24 24 25 25 26 27 28 29 31 33 35 37 39 41 43 45 46 47 48 49 50 50 50 50 50 50 50 50
47 46 44 40 38 36 34 32 31 30 29 30 31 33 36 39 41 43 44 44 43 41 38 36 34 32 30 29 28 27 26 26 26 26 25 25 25 25 25 25 25 25 25 25 24 24 24 23 22 22 22 22 22 23 23 23 23 22 22 22 22 22 22 22 22 22 22 22 22 23 24 26 27 29 31 34 36 38 40 42 44 45 45 45 45 45
46 44 41 38 37 35 33 32 31 30 31 32 34 37 40 43 44 44 44 42 40 38 35 33 32 30 29 28 27 26 26 25 25 25 25 25 25 25 25 24 24 24 24 24 24 23 23 23 22 22 22 22 22 22 22 22 22 21 21 21 20 19 18 17 17 16 15 14 14 13 13 13 13 14 15 18 20 23 26 28 30 32 34 34 35 36
43 41 39 37 36 34 32 31 31 32 33 36 38 41 44 45 45 43 41 39 37 35 33 32 31 30 28 28 27 26 26 26 25 25 25 25 25 24 24 24 24 24 24 24 23 23 23 23 23 23 23 23 23 22 22 22 21 20 19 18 16 15 14 13 13 12 12 11 11 10 10 9 9 9 9 10 11 12 14 16 18 21 22 23 24 25
40 39 38 36 34 33 32 32 33 35 37 40 43 45 46 45 43 41 38 36 34 33 32 31 30 29 28 27 27 26 26 26 25 25 25 25 24 24 24 24 24 24 24 24 24 24 24 24 24 24 23 23 22 21 20 19 18 17 16 15 13 12 12 11 11 11 11 10 10 10 9 9 8 8 8 8 8 8 8 10 12 14 15 16 17 19
39 38 37 35 33 33 33 35 37 39 42 44 46 46 45 42 39 37 35 34 33 32 31 30 29 28 27 27 26 26 26 25 25 25 25 24 24 24 24 24 24 24 24 25 25 25 25 25 24 24 23 22 20 19 18 16 15 14 14 12 12 11 11 11 10 10 10 10 9 9 9 9 9 8 8 8 7 7 7 8 9 11 12 13 15 16
38 37 35 34 34 34 36 38 41 43 45 46 46 44 41 38 36 34 33 33 32 31 30 29 28 27 26 25 24 24 24 24 24 24 24 23 23 23 23 23 24 24 24 25 25 24 24 23 23 21 20 18 17 15 15 14 13 12 12 11 11 11 10 10 10 10 10 10 9 9 9 9 9 8 8 8 7 7 7 8 8 9 10 11 13 15
37 35 34 35 36 38 40 43 44 46 46 45 42 39 37 35 34 33 33 32 31 30 29 27 26 26 24 23 22 22 22 23 23 22 22 22 21 21 21 22 22 23 23 23 22 22 21 20 19 17 16 14 14 13 12 12 12 11 11 11 11 11 11 10 10 10 10 10 9 9 9 9 9 8 8 8 7 7 7 7 7 8 9 10 11 13
36 36 36 38 40 42 44 45 45 45 43 40 37 35 33 33 33 33 33 31 30 28 27 26 25 24 22 21 20 20 20 20 20 20 20 20 19 19 18 18 19 19 19 19 18 18 17 16 15 14 13 12 12 11 11 11 11 11 11 11 11 11 11 11 10 10 10 10 10 10 9 9 9 8 8 7 7 7 7 7 8 8 9 10 10 12
37 38 40 42 43 45 45 44 42 39 36 34 33 33 33 34 34 34 34 32 29 25 24 23 22 22 21 20 19 18 18 18 17 17 16 16 16 15 15 15 15 15 15 15 15 14 14 13 13 12 12 12 11 11 11 11 11 12 12 12 12 12 11 11 11 10 10 10 10 10 10 9 9 8 8 8 8 8 8 8 9 9 10 10 10 10
41 42 44 44 44 43 41 38 35 33 32 32 33 33 34 34 34 33 33 32 29 25 21 20 19 19 18 17 17 16 16 15 14 13 13 13 13 13 13 13 13 13 13 13 13 13 13 13 13 12 12 12 12 12 12 12 12 12 12 12 12 12 12 11 11 11 10 10 10 10 10 9 9 9 8 8 8 9 9 10 10 10 10 10 10 10
44 45 44 43 40 37 35 33 32 32 33 34 35 36 35 34 33 32 31 30 28 24 20 19 17 16 16 15 15 14 14 13 12 11 11 11 11 12 12 12 13 13 14 14 14 14 13 13 13 13 12 12 12 12 12 12 13 13 13 13 13 12 12 11 11 11 11 10 10 10 10 10 9 9 9 9 10 10 11 11 11 11 11 10 10 10
46 43 41 38 35 33 32 33 34 35 36 36 37 36 35 33 32 30 29 27 25 22 20 18 17 15 14 14 14 13 12 11 11 11 11 11 11 12 12 13 14 14 15 15 15 15 14 14 14 13 13 13 13 13 13 13 13 13 13 13 13 12 12 11 11 11 11 11 10 10 10 10 10 10 10 11 11 11 12 12 11 11 11 11 10 10
43 40 37 36 35 35 36 37 37 38 38 37 36 35 33 32 30 28 26 24 21 19 17 17 16 16 15 14 13 13 12 12 12 12 12 13 13 13 13 14 15 15 16 16 16 15 15 14 14 13 13 13 13 13 13 13 13 14 13 13 13 12 12 12 11 11 11 11 11 11 11 11 11 11 11 12 12 12 12 12 12 11 11 11 10 10
41 39 38 38 39 40 40 39 39 38 36 34 33 33 32 30 27 25 23 21 19 18 17 16 17 18 18 16 15 14 13 13 13 13 13 14 14 15 14 15 15 16 16 16 16 15 15 14 14 13 13 12 13 13 13 14 14 14 13 13 13 12 12 12 12 12 12 12 12 12 12 12 12 13 13 13 13 13 13 12 12 11 11 11 11 11
42 42 42 42 42 41 40 38 36 35 33 32 31 31 29 27 24 22 20 19 18 17 17 17 18 19 21 18 15 14 13 13 14 14 14 15 16 16 15 16 16 16 16 15 15 15 14 13 13 12 12 13 13 14 14 14 14 14 14 14 13 13 13 13 13 13 14 14 14 14 14 14 14 14 14 14 14 13 13 12 12 12 12 12 12 12
43 42 42 41 40 38 36 35 33 33 32 31 30 29 26 24 22 20 19 18 18 18 18 18 18 18 19 21 19 15 13 14 14 15 15 15 15 16 16 16 16 16 16 15 14 14 13 13 13 13 13 14 14 15 15 16 15 15 15 14 14 14 14 15 15 15 15 15 15 15 15 15 15 15 15 14 14 13 13 13 13 12 13 13 13 13
39 38 37 36 35 35 34 34 33 33 32 30 28 25 23 22 21 20 19 19 19 19 19 19 19 17 16 20 19 16 13 13 14 15 15 15 15 16 17 17 16 16 16 15 15 14 13 13 14 14 14 15 16 16 16 16 16 16 16 16 16 16 16 16 16 16 16 16 16 16 16 16 16 15 15 14 14 13 13 13 13 13 13 14 14 14
35 34 33 33 33 34 35 35 34 32 30 27 25 23 22 21 20 20 20 20 19 19 19 19 18 18 16 17 17 15 13 13 14 15 15 16 16 17 17 17 17 16 16 15 15 14 14 14 14 15 16 16 17 17 17 17 17 17 17 17 17 17 18 18 18 17 17 17 17 17 16 16 16 15 15 14 14 13 13 13 14 14 14 15 15 15
32 33 33 33 34 35 36 34 32 29 26 25 23 22 22 21 21 21 21 20 19 19 19 18 18 17 16 16 15 15 14 14 15 16 16 16 17 17 18 18 18 17 17 16 15 15 15 15 15 16 16 17 18 18 18 18 18 18 18 18 18 18 19 18 18 18 18 17 17 17 17 17 16 16 15 14 14 13 13 14 14 15 15 16 16 16
32 32 32 32 32 31 31 29 27 25 24 23 22 22 22 22 22 22 22 20 20 19 19 18 18 17 16 16 15 15 15 15 16 16 17 17 17 18 19 19 19 18 17 17 16 16 16 16 16 17 17 18 18 19 19 19 19 19 19 19 19 19 19 19 19 18 18 18 18 17 17 17 16 16 15 14 14 14 14 15 15 16 16 16 16 16
29 29 28 27 26 26 25 24 23 22 22 22 22 22 21 21 22 21 21 20 20 19 18 18 18 17 17 16 16 16 16 16 16 17 17 18 18 18 20 20 19 19 18 18 18 18 18 18 18 18 19 19 20 20 21 20 20 20 20 20 20 20 20 19 19 19 18 18 18 18 18 17 16 16 15 14 14 14 15 16 16 17 17 16 16 16
24 24 23 23 23 22 22 22 22 22 22 22 21 21 21 21 21 21 21 20 20 20 19 19 19 18 18 17 17 17 17 16 17 17 18 18 19 19 20 20 20 20 20 20 20 20 20 20 20 21 21 21 22 22 22 22 21 21 20 20 20 20 20 20 19 19 19 19 19 19 18 17 16 15 14 14 14 15 16 16 17 17 17 16 16 16
21 21 21 22 22 22 22 22 22 22 22 22 22 22 22 22 21 21 21 21 21 20 20 20 20 19 19 18 18 17 17 18 18 18 19 19 20 20 21 21 21 21 22 23 23 23 24 24 24 23 23 23 23 23 23 23 22 21 21 21 21 21 20 20 20 20 20 19 19 19 18 17 16 15 14 14 15 15 16 17 17 17 17 17 16 17
21 22 22 22 22 22 22 22 23 23 23 23 22 22 22 22 22 21 21 22 22 22 22 22 21 21 20 21 20 20 20 19 19 20 20 21 21 21 23 23 23 23 24 25 26 26 27 27 27 26 26 26 25 25 24 23 23 22 22 21 21 21 21 21 20 20 20 20 20 19 18 17 16 15 14 15 15 16 17 17 17 17 17 17 17 18
22 22 22 22 22 22 23 23 23 23 23 23 23 23 22 22 22 22 22 23 23 23 24 24 23 23 23 24 24 24 23 22 21 21 21 22 22 23 24 25 25 26 26 27 28 29 29 29 29 28 28 27 27 26 25 24 23 23 22 22 22 22 21 21 21 21 21 21 20 19 18 16 15 14 14 15 16 17 17 17 17 17 17 17 18 19
23 23 23 23 23 23 23 23 23 23 23 23 23 23 23 23 23 23 23 24 24 25 26 26 26 26 25 25 26 26 26 24 22 22 22 23 24 25 26 26 27 28 28 29 30 30 31 30 30 29 29 28 27 27 26 25 25 24 24 24 23 23 22 22 22 22 22 21 20 19 17 16 15 15 15 16 17 18 18 18 18 18 18 18 19 20
25 25 25 25 24 24 24 24 23 23 23 23 23 23 23 23 23 24 24 25 26 26 27 27 26 26 25 25 25 25 25 24 23 23 24 25 26 27 28 28 29 30 30 31 31 31 31 31 30 30 29 29 28 28 27 27 26 26 26 25 25 24 23 23 23 23 23 22 21 19 17 16 16 16 17 18 19 19 19 19 19 19 19 20 21 22
26 26 26 26 25 25 24 24 24 24 24 24 23 23 23 23 24 24 24 25 25 26 26 26 25 25 25 25 25 25 25 25 25 25 26 27 28 29 30 30 31 31 32 32 32 32 32 31 31 30 30 30 29 29 29 28 28 28 27 27 26 25 25 24 24 24 24 22 21 19 17 17 17 17 19 20 20 21 21 20 20 20 20 22 23 23
27 27 27 27 26 25 25 25 24 24 24 24 24 24 24 24 24 24 25 25 26 26 26 26 25 25 24 25 26 26 27 27 27 28 28 29 30 30 31 32 33 33 34 34 34 34 34 33 32 30 30 30 30 30 30 30 30 29 29 28 27 27 26 26 26 26 25 23 21 19 18 18 18 19 21 22 22 22 22 21 21 21 22 23 24 25
29 29 28 28 27 26 26 25 25 25 25 25 25 25 25 25 25 25 26 26 26 26 26 26 26 25 25 25 26 26 28 28 28 29 29 30 31 32 33 34 34 35 35 34 34 34 34 33 32 31 31 31 31 32 32 32 32 31 30 30 29 29 28 28 28 27 26 23 21 20 19 19 20 21 22 23 23 23 22 21 21 22 23 24 25 26
31 31 30 29 28 27 27 26 26 25 26 26 26 26 26 27 27 27 27 27 27 27 27 26 26 26 26 26 26 27 28 30 30 30 32 32 33 34 35 36 36 36 36 35 34 34 34 33 33 32 32 32 33 33 34 34 33 33 32 31 31 31 31 30 29 28 26 23 21 20 20 21 21 22 23 23 23 22 22 21 21 22 23 24 26 26
33 33 32 31 30 29 28 27 27 26 26 27 27 27 27 28 27 28 28 28 28 27 27 28 28 27 27 27 28 29 30 33 33 33 34 34 35 36 37 38 38 38 37 36 35 34 34 34 33 33 33 34 34 34 35 34 34 33 33 32 32 32 32 31 30 28 25 23 21 20 21 22 23 23 24 24 23 23 22 21 21 22 24 25 26 27
35 34 34 33 32 31 30 29 29 28 28 28 28 28 28 28 28 28 28 28 28 28 29 29 29 29 29 30 31 33 34 37 37 37 37 37 38 39 40 40 40 39 38 37 36 35 35 35 35 35 35 35 36 36 36 35 35 34 33 32 32 32 31 30 28 26 23 22 21 21 21 22 23 24 25 25 24 23 22 21 22 23 25 27 28 29
36 36 36 35 34 33 32 31 31 30 30 29 29 29 29 29 29 29 29 29 30 30 30 31 32 33 34 35 36 37 38 40 40 40 40 40 41 41 42 41 41 40 39 38 38 37 36 36 37 37 37 37 38 38 37 36 35 34 33 32 32 31 30 29 27 24 22 21 21 21 22 23 24 25 26 26 25 24 23 23 24 25 27 29 30 31
38 38 38 38 37 36 35 34 33 33 32 31 31 30 30 30 30 30 31 31 32 33 34 35 36 37 39 40 41 41 42 42 43 43 43 43 44 44 43 42 41 41 40 39 39 39 38 38 38 39 39 39 39 39 39 38 36 35 34 33 32 31 30 28 26 24 22 22 22 22 23 25 26 27 28 28 27 26 25 25 25 27 29 30 32 33
40 41 41 41 40 40 39 38 37 36 35 34 34 33 33 32 33 33 34 34 36 37 38 40 41 42 43 44 44 44 45 45 46 46 47 47 46 46 45 44 43 42 41 40 40 40 40 41 41 41 41 41 41 41 41 40 38 37 35 34 33 32 30 28 25 23 23 23 23 24 25 27 28 29 30 30 29 28 27 26 27 28 30 32 33 34
42 43 44 44 44 43 42 42 41 40 39 38 37 37 36 36 37 37 38 39 40 42 43 44 45 46 46 46 47 47 47 48 48 48 49 49 48 47 46 45 44 43 42 41 41 41 42 42 43 43 44 44 43 43 42 40 39 37 36 35 33 32 29 27 25 24 24 24 25 26 27 28 30 31 32 32 31 29 28 27 28 29 31 33 35 36
44 45 46 46 47 47 46 45 44 43 42 42 41 41 41 41 42 42 43 44 46 46 47 48 48 49 49 49 49 49 49 49 49 50 50 50 49 49 48 46 45 44 43 43 42 43 43 44 44 45 45 45 45 44 43 41 39 38 36 35 33 30 28 26 25 25 25 26 26 27 28 29 31 32 32 32 31 29 28 27 28 29 31 34 36 37
45 46 48 48 49 49 48 48 47 46 46 45 45 45 45 46 47 48 49 50 50 50 50 50 51 51 51 51 51 50 50 50 50 50 50 50 50 50 49 48 46 45 44 44 44 44 44 45 46 46 46 46 46 45 43 41 39 38 36 34 31 29 27 26 25 25 26 26 27 28 29 30 31 32 32 32 30 29 28 27 28 29 31 34 36 38
47 48 49 49 50 50 50 50 49 49 49 49 49 49 50 51 51 53 53 53 53 53 52 53 53 54 54 53 52 51 50 50 50 50 51 51 51 50 50 49 48 47 46 45 45 45 45 46 46 47 47 47 46 45 43 41 39 37 35 32 30 27 26 25 25 26 26 27 27 28 29 30 31 32 32 31 30 28 27 27 27 29 31 34 36 38
47 48 49 49 50 50 50 51 51 51 51 52 52 53 53 54 54 55 55 55 54 55 55 55 55 55 54 54 53 52 51 50 50 51 51 51 51 51 50 49 48 47 47 46 46 47 46 47 47 47 47 47 47 46 44 41 39 36 33 30 28 26 25 25 25 26 26 27 27 28 29 30 31 32 32 31 30 28 27 26 27 28 30 33 36 38
47 47 47 47 48 49 49 50 50 51 52 53 53 54 55 55 55 55 55 55 55 56 55 55 55 55 54 53 52 51 52 50 50 50 51 51 51 51 51 50 49 48 47 47 47 48 48 48 48 47 47 48 47 46 43 40 37 33 30 28 27 26 26 25 26 26 26 27 27 28 29 31 31 32 32 31 30 28 27 26 26 27 29 32 35 38
45 45 45 45 45 45 46 47 48 48 50 51 52 52 53 53 54 54 55 55 55 54 54 54 54 54 53 52 51 51 51 51 51 51 51 51 52 51 51 51 50 49 48 48 48 48 49 49 49 48 48 48 47 45 42 38 34 30 27 26 25 25 25 26 26 26 27 27 28 29 30 31 32 33 33 32 30 28 27 26 26 26 28 31 35 38
43 42 42 42 42 42 43 43 44 45 46 47 48 48 49 50 51 51 52 52 52 52 51 51 52 53 53 52 51 51 52 53 53 53 52 52 52 52 52 52 51 50 49 49 48 48 49 49 49 49 49 48 46 43 39 35 31 27 25 25 25 25 26 26 26 27 27 28 29 30 31 32 33 34 34 32 30 28 26 25 25 25 27 30 34 37
41 41 40 40 41 41 41 42 42 43 44 44 45 46 47 47 48 48 48 48 48 49 49 49 50 51 52 52 52 53 54 55 55 56 56 55 55 54 54 53 52 51 50 50 50 49 49 49 49 49 49 47 44 40 35 31 27 25 24 24 25 25 26 26 27 27 28 29 30 31 31 32 33 34 34 33 31 28 26 25 24 25 27 29 33 37
42 41 41 41 42 42 42 42 43 43 44 45 45 46 46 46 47 47 47 46 47 47 48 49 50 51 53 53 54 55 56 57 58 59 59 60 59 58 57 55 54 52 51 50 50 50 50 49 49 48 47 44 41 37 31 27 25 24 24 25 25 26 26 26 27 28 29 29 30 31 32 33 34 34 34 33 31 28 26 24 24 25 26 29 33 37
45 44 44 44 44 45 45 45 45 46 46 47 47 48 48 48 48 48 47 47 48 48 49 50 51 52 54 55 56 56 58 59 60 61 62 63 63 62 60 58 56 53 52 51 51 50 49 48 47 46 43 40 36 32 28 25 24 24 25 25 26 27 27 27 28 29 29 30 30 31 32 33 34 35 36 34 32 29 26 24 24 24 26 29 33 37
48 48 49 48 48 48 48 48 49 49 49 49 50 49 50 50 50 50 50 50 50 51 51 52 53 54 55 56 58 59 60 61 62 62 63 64 64 64 63 60 58 55 54 53 51 50 49 46 44 41 37 34 31 28 25 24 24 24 26 27 27 28 28 28 29 29 30 30 31 32 32 33 34 35 37 36 34 30 27 25 24 24 26 29 33 37
51 52 52 52 52 52 51 51 51 51 51 51 51 51 51 51 52 52 53 53 53 54 54 54 55 56 56 58 59 61 62 63 64 65 64 65 65 64 63 61 59 57 55 53 51 48 45 41 37 34 31 29 27 26 25 25 25 26 27 28 29 29 30 29 30 30 31 31 32 32 34 35 36 37 38 37 36 33 29 26 25 25 26 29 33 37